TimeEDT,TemperatureF,Dew PointF,Humidity,Sea Level PressureIn,VisibilityMPH,Wind Direction,Wind SpeedMPH,Gust SpeedMPH,PrecipitationIn,Events,Conditions,WindDirDegrees,DateUTC
12:00 AM,78.1,69.1,74,29.52,-9999.0,West,4.6,-,N/A,,Clear,280,2013-06-29 04:00:00
1:00 AM,77.0,69.1,76,29.52,-9999.0,South,3.5,-,N/A,,Clear,180,2013-06-29 05:00:00
2:00 AM,72.0,68.0,87,29.51,-9999.0,Calm,Calm,-,N/A,,Clear,0,2013-06-29 06:00:00
3:00 AM,70.0,66.0,87,29.51,-9999.0,Calm,Calm,-,N/A,,Clear,0,2013-06-29 07:00:00
4:00 AM,73.9,66.9,79,29.52,-9999.0,Calm,Calm,-,N/A,,Clear,0,2013-06-29 08:00:00
5:00 AM,71.1,66.0,84,29.55,-9999.0,Calm,Calm,-,N/A,,Clear,0,2013-06-29 09:00:00
6:00 AM,79.0,66.9,66,29.57,-9999.0,South,4.6,-,N/A,,Overcast,190,2013-06-29 10:00:00
6:40 AM,80.6,68.0,65,29.59,-9999.0,SSW,6.9,-,N/A,Rain,Light Rain,200,2013-06-29 10:40:00
7:00 AM,78.1,68.0,71,29.59,-9999.0,SSW,3.5,-,N/A,Rain,Light Rain,200,2013-06-29 11:00:00
8:00 AM,81.0,69.1,67,29.59,-9999.0,SW,4.6,-,N/A,,Mostly Cloudy,230,2013-06-29 12:00:00
9:00 AM,84.0,70.0,63,29.61,-9999.0,WSW,6.9,-,N/A,,Mostly Cloudy,240,2013-06-29 13:00:00
10:00 AM,87.1,69.1,55,29.60,-9999.0,West,6.9,-,N/A,,Scattered Clouds,280,2013-06-29 14:00:00
11:00 AM,91.0,64.9,42,29.61,-9999.0,SW,11.5,-,N/A,,Clear,230,2013-06-29 15:00:00
12:00 PM,93.0,66.0,41,29.61,-9999.0,SSW,9.2,-,N/A,,Partly Cloudy,210,2013-06-29 16:00:00
1:00 PM,93.9,66.0,40,29.60,-9999.0,SSW,8.1,-,N/A,,Scattered Clouds,200,2013-06-29 17:00:00
2:00 PM,98.1,66.9,36,29.60,-9999.0,Variable,3.5,-,N/A,,Scattered Clouds,0,2013-06-29 18:00:00
3:00 PM,98.1,70.0,40,29.60,-9999.0,South,8.1,-,N/A,,Mostly Cloudy,180,2013-06-29 19:00:00
4:00 PM,93.9,68.0,43,29.61,-9999.0,West,3.5,-,N/A,,Scattered Clouds,280,2013-06-29 20:00:00
5:00 PM,97.0,72.0,44,29.62,-9999.0,South,8.1,-,N/A,,Clear,170,2013-06-29 21:00:00
6:00 PM,93.0,73.0,52,29.62,-9999.0,South,8.1,-,N/A,,Mostly Cloudy,170,2013-06-29 22:00:00
7:00 PM,91.9,73.0,54,29.63,-9999.0,South,10.4,17.3,N/A,,Scattered Clouds,190,2013-06-29 23:00:00
8:00 PM,89.1,71.1,55,29.66,-9999.0,South,6.9,-,N/A,,Clear,190,2013-06-30 00:00:00
9:00 PM,84.9,71.1,63,29.67,-9999.0,South,5.8,-,N/A,,Clear,190,2013-06-30 01:00:00
10:00 PM,82.9,71.1,67,29.70,-9999.0,South,3.5,-,N/A,,Clear,180,2013-06-30 02:00:00
11:00 PM,78.1,70.0,76,29.70,-9999.0,South,3.5,-,N/A,,Clear,170,2013-06-30 03:00:00